カタログに戻る

COSMOS 637

運用中軍事GEO
NORAD 7229·PAYLOAD·🇷🇺 Russia

打ち上げ Mar 26, 1974 から Baikonur Cosmodrome

Loading…

TLE

最新Source: Space-Track

元期: Sep 14, 2026, 13:50 UTC

1 07229U 74017A   26257.57676605  .00000080  00000-0  00000-0 0  9991
2 07229   0.6186 243.8819 0037995  88.8665  43.8923  1.00772068123109

AllMySatでCOSMOS 637をリアルタイム追跡

Download on the App Store